This is the latest recevied weather packets stored in our database for station/object TULLARI. If no packets are shown the sender has not sent any weather packets the latest 10 day(s).
| Time | Temp. | Humidity | Pressure | Rain* | Wind** | Luminosity | Snow |
|---|---|---|---|---|---|---|---|
| 1777951642 | 6.67° C | 82% | 1001 hPa | - | - | - | - |
| 1777950442 | 6.11° C | 85% | 1001.1 hPa | - | - | - | - |
| 1777949242 | 6.11° C | 87% | 1001.2 hPa | - | - | - | - |
| 1777948042 | 6.11° C | 88% | 1001.3 hPa | - | - | - | - |
| 1777946842 | 6.11° C | 89% | 1001.6 hPa | - | - | - | - |
| 1777945642 | 5.56° C | 95% | 1001.9 hPa | - | - | - | - |
| 1777944441 | 5.56° C | 99% | 1002.1 hPa | - | - | - | - |
| 1777943242 | 5.56° C | 100% | 1002.2 hPa | - | - | - | - |
| 1777942041 | 5.56° C | 100% | 1002.3 hPa | - | - | - | - |
| 1777940841 | 5° C | 100% | 1002.4 hPa | - | - | - | - |
| 1777939641 | 5° C | 100% | 1002.4 hPa | - | - | - | - |
| 1777938442 | 4.44° C | 100% | 1002.6 hPa | - | - | - | - |
| 1777937242 | 4.44° C | 100% | 1002.9 hPa | - | - | - | - |
| 1777936041 | 4.44° C | 100% | 1002.8 hPa | - | - | - | - |
| 1777934842 | 4.44° C | 100% | 1003 hPa | - | - | - | - |
| 1777933641 | 4.44° C | 100% | 1003 hPa | - | - | - | - |
| 1777932442 | 4.44° C | 100% | 1003 hPa | - | - | - | - |
| 1777931241 | 5° C | 100% | 1003.1 hPa | - | - | - | - |
| 1777930041 | 5° C | 100% | 1003.1 hPa | - | - | - | - |
| 1777928841 | 4.44° C | 100% | 1003.2 hPa | - | - | - | - |
| 1777927641 | 4.44° C | 100% | 1003.4 hPa | - | - | - | - |
| 1777926440 | 4.44° C | 100% | 1003.3 hPa | - | - | - | - |
| 1777925241 | 4.44° C | 100% | 1003 hPa | - | - | - | - |
| 1777924040 | 4.44° C | 100% | 1003.3 hPa | - | - | - | - |
| 1777922840 | 4.44° C | 100% | 1003.4 hPa | - | - | - | - |
* Rain since midnight (hover to see other rain measurements)
** Current wind speed in m/s (hover to see current wind gust speed)